Weather History for Tallahassee, FL

Change the Weather History Date:

Saturday, December 15, 2012

  Actual Average Record
Temperature  
Mean Temperature 55 °F 53 °F  
Max Temperature 70 °F 65 °F 81 °F (1948)
Min Temperature 40 °F 41 °F 20 °F (1985)
Degree Days  
Heating Degree Days 10    
Month to date heating degree days 65  
Since 1 July heating degree days 323  
Cooling Degree Days 0    
Month to date cooling degree days 12  
Year to date cooling degree days 2970  
Growing Degree Days 4 (Base 50)    
Moisture  
Dew Point 47 °F    
Average Humidity 77    
Maximum Humidity 93    
Minimum Humidity 61    
Precipitation  
Precipitation 0.00 in 0.13 in 1.93 in (1936)
Month to date precipitation 0.92 1.93  
Year to date precipitation 56.96 57.26  
Sea Level Pressure  
Sea Level Pressure 30.15 in    
Wind  
Wind Speed 1 mph (WNW)    
Max Wind Speed 7 mph    
Max Gust Speed 9 mph    
Visibility 8 miles    
Events      
T = Trace of Precipitation, MM = Missing Value Source: NWS Daily Summary

Daily Weather History Graph

Daily Weather History Graph

Search for Another Location

Airport:

Trip Planner

Search our weather history database for the weather conditions in past years. The results will help you decide how hot, cold, wet, or windy it might be!

Date:

Astronomy

Dec. 15, 2012 Rise Set
Actual Time 7:26 AM EST 5:38 PM EST
Civil Twilight 7:00 AM EST 6:05 PM EST
Nautical Twilight 6:30 AM EST 6:35 PM EST
Astronomical Twilight 6:01 AM EST 7:04 PM EST
Moon 9:26 AM EST (12/15) 8:33 PM EST (12/15)
Length of Visible Light 11h 04m
Length of Day
10h 11m
Waxing Crescent, 8% of the Moon is Illuminated
Dec 15
Waxing Crescent
Dec 20
First Quarter
Dec 28
Full
Jan 4
Last Quarter
Jan 11
New

Hourly Weather History & Observations

Time (EST) Temp. Windchill Dew Point Humidity Pressure Visibility Wind Dir Wind Speed Gust Speed Precip Events Conditions
12:25 AM 41.0 °F 39.0 °F 37.4 °F 87% 30.17 in 4.0 mi West 3.5 mph - N/A   Partly Cloudy
12:27 AM 41.0 °F 39.0 °F 37.4 °F 87% 30.17 in 1.8 mi West 3.5 mph - N/A   Partly Cloudy
12:34 AM 41.0 °F 38.0 °F 37.4 °F 87% 30.18 in 0.8 mi WNW 4.6 mph - N/A   Mist
12:49 AM 41.0 °F - 39.2 °F 93% 30.18 in 0.8 mi Calm Calm - N/A   Mist
12:53 AM 41.0 °F 39.0 °F 39.0 °F 93% 30.19 in 1.8 mi NW 3.5 mph - N/A   Mostly Cloudy
1:43 AM 42.8 °F 41.1 °F 39.2 °F 87% 30.17 in 5.0 mi West 3.5 mph - N/A   Mostly Cloudy
1:53 AM 43.0 °F 41.3 °F 39.9 °F 89% 30.18 in 5.0 mi NW 3.5 mph - N/A   Overcast
2:53 AM 45.0 °F - 42.1 °F 90% 30.16 in 10.0 mi Calm Calm - N/A   Overcast
3:53 AM 43.0 °F - 39.9 °F 89% 30.14 in 8.0 mi Calm Calm - N/A   Clear
4:53 AM 46.0 °F - 42.1 °F 86% 30.15 in 9.0 mi Calm Calm - N/A   Clear
5:53 AM 46.9 °F - 44.1 °F 90% 30.16 in 8.0 mi Calm Calm - N/A   Clear
6:31 AM 46.4 °F - 44.6 °F 93% 30.16 in 9.0 mi Calm Calm - N/A   Scattered Clouds
6:53 AM 46.0 °F - 43.0 °F 89% 30.17 in 7.0 mi Calm Calm - N/A   Scattered Clouds
7:53 AM 48.0 °F - 45.0 °F 89% 30.18 in 6.0 mi Calm Calm - N/A   Partly Cloudy
8:11 AM 48.2 °F - 44.6 °F 87% 30.19 in 7.0 mi West 3.5 mph - N/A   Mostly Cloudy
8:53 AM 50.0 °F - 46.9 °F 89% 30.19 in 10.0 mi NW 3.5 mph - N/A   Mostly Cloudy
9:02 AM 51.8 °F - 46.4 °F 82% 30.20 in 10.0 mi WNW 4.6 mph - N/A   Mostly Cloudy
9:53 AM 54.0 °F - 48.0 °F 80% 30.21 in 10.0 mi Calm Calm - N/A   Mostly Cloudy
10:19 AM 55.4 °F - 48.2 °F 77% 30.21 in 10.0 mi East 4.6 mph - N/A   Overcast
10:28 AM 55.4 °F - 46.4 °F 72% 30.21 in 10.0 mi Variable 3.5 mph - N/A   Overcast
10:53 AM 57.0 °F - 48.9 °F 74% 30.21 in 10.0 mi ESE 4.6 mph - N/A   Overcast
11:53 AM 60.1 °F - 51.1 °F 72% 30.19 in 10.0 mi East 3.5 mph - N/A   Overcast
12:26 PM 62.6 °F - 53.6 °F 72% 30.17 in 10.0 mi Calm Calm - N/A   Overcast
12:50 PM 64.4 °F - 53.6 °F 68% 30.15 in 10.0 mi ENE 4.6 mph - N/A   Scattered Clouds
12:53 PM 64.9 °F - 54.0 °F 68% 30.15 in 10.0 mi Calm Calm - N/A   Partly Cloudy
1:53 PM 66.9 °F - 54.0 °F 63% 30.12 in 10.0 mi Calm Calm - N/A   Partly Cloudy
2:53 PM 66.9 °F - 54.0 °F 63% 30.10 in 10.0 mi Calm Calm - N/A   Partly Cloudy
3:53 PM 69.1 °F - 55.0 °F 61% 30.09 in 10.0 mi Calm Calm - N/A   Partly Cloudy
4:53 PM 68.0 °F - 55.9 °F 65% 30.09 in 10.0 mi Calm Calm - N/A   Partly Cloudy
5:53 PM 63.0 °F - 55.9 °F 78% 30.09 in 10.0 mi Calm Calm - N/A   Clear
6:53 PM 57.9 °F - 54.0 °F 87% 30.09 in 10.0 mi Calm Calm - N/A   Clear
7:53 PM 55.9 °F - 53.1 °F 90% 30.08 in 10.0 mi ESE 3.5 mph - N/A   Clear
8:53 PM 54.0 °F - 50.0 °F 86% 30.11 in 10.0 mi Calm Calm - N/A   Clear
9:53 PM 53.1 °F - 51.1 °F 93% 30.08 in 10.0 mi Calm Calm - N/A   Partly Cloudy
10:53 PM 52.0 °F - 48.9 °F 89% 30.09 in 7.0 mi Calm Calm - N/A   Mostly Cloudy
11:53 PM 50.0 °F - 46.9 °F 89% 30.08 in 10.0 mi Calm Calm - N/A   Overcast